Oscoda, MI

12:26 PM EST on December 12, 2019 (GMT -0500)
Oscoda-Wurtsmith

Weather History for KOSC - October, 2019

Change the Weather History Date:

Sunday, October 27, 2019

  Actual Average Record
Temperature  
Mean Temperature 46 °F -  
Max Temperature 57 °F 50 °F 75 °F (1998)
Min Temperature 36 °F 35 °F 26 °F (1997)
Degree Days  
Heating Degree Days 18    
Moisture  
Dew Point 49 °F    
Average Humidity 92    
Maximum Humidity 100    
Minimum Humidity 70    
Precipitation  
Precipitation 0.57 in - - ()
Sea Level Pressure  
Sea Level Pressure 29.65 in    
Wind  
Wind Speed 10 mph ()    
Max Wind Speed 20 mph    
Max Gust Speed 33 mph    
Visibility 8.5 miles    
Events Rain    
Averages and records for this station are not official NWS values.
T = Trace of Precipitation, MM = Missing Value Source: Averaged Metar Reports

Daily Weather History Graph

Daily Weather History Graph

Search for Another Location

Airport or City:

Astronomy

Oct. 27, 2019 Rise Set
Actual Time 8:03 AM EDT 6:30 PM EDT
Civil Twilight 7:33 AM EDT 7:00 PM EDT
Nautical Twilight 6:59 AM EDT 7:34 PM EDT
Astronomical Twilight 6:26 AM EDT 8:07 PM EDT
Moon 7:06 AM EDT (10/27) 6:41 PM EDT (10/27)
Length of Visible Light 11h 26m
Length of Day
10h 26m
Waning Crescent, 0% of the Moon is Illuminated
Oct 27
Waning Crescent
Oct 27
New
Nov 4
First Quarter
Nov 12
Full
Nov 19
Last Quarter

Hourly Weather History & Observations

Time (EDT) Temp. Windchill Dew Point Humidity Pressure Visibility Wind Dir Wind Speed Gust Speed Precip Events Conditions
12:18 AM 48.2 °F - 48.2 °F 100% 29.72 in 2.0 mi East 16.1 mph 23.0 mph 0.13 in Rain Rain
12:36 AM 48.2 °F - 48.2 °F 100% 29.70 in 4.0 mi East 13.8 mph 25.3 mph 0.20 in Rain Light Rain
12:55 AM 48.2 °F - 48.2 °F 100% 29.68 in 5.0 mi East 17.3 mph 24.2 mph 0.22 in Rain Light Rain
1:15 AM 48.6 °F - 48.6 °F 100% 29.67 in 7.0 mi East 13.8 mph 19.6 mph 0.01 in Rain Light Rain
1:39 AM 48.7 °F - 48.7 °F 100% 29.65 in 7.0 mi East 10.4 mph 17.3 mph 0.02 in Rain Light Rain
1:57 AM 49.1 °F - 49.1 °F 100% 29.63 in 5.0 mi East 12.7 mph 19.6 mph 0.02 in Rain Heavy Rain
2:15 AM 49.1 °F - 49.1 °F 100% 29.60 in 3.0 mi East 11.5 mph - 0.04 in Rain Rain
2:35 AM 49.5 °F - 49.5 °F 100% 29.59 in 2.5 mi East 10.4 mph - 0.06 in Rain Light Rain
2:55 AM 50.0 °F - 50.0 °F 100% 29.58 in 4.0 mi East 5.8 mph - 0.08 in Rain Light Rain
3:18 AM 50.9 °F - 50.9 °F 100% 29.55 in 3.0 mi East 8.1 mph - 0.02 in Rain Heavy Rain
3:36 AM 51.8 °F - 51.8 °F 100% 29.52 in 5.0 mi East 8.1 mph - 0.03 in Rain Rain
3:55 AM 51.8 °F - 51.8 °F 100% 29.50 in 7.0 mi East 8.1 mph - 0.03 in   Light Drizzle
3:56 AM 51.8 °F - 51.8 °F 100% 29.50 in 7.0 mi East 9.2 mph - 0.03 in   Light Drizzle
4:15 AM 52.0 °F - 52.0 °F 100% 29.47 in 7.0 mi East 9.2 mph - N/A   Drizzle
4:39 AM 52.2 °F - 52.2 °F 100% 29.45 in 10.0 mi ESE 8.1 mph - N/A   Overcast
4:57 AM 52.2 °F - 52.2 °F 100% 29.44 in 10.0 mi ESE 11.5 mph - 0.01 in   Overcast
5:15 AM 52.7 °F - 52.7 °F 100% 29.42 in 10.0 mi SE 9.2 mph 19.6 mph N/A   Overcast
5:16 AM 52.7 °F - 52.7 °F 100% 29.42 in 10.0 mi SE 11.5 mph 19.6 mph N/A   Overcast
5:35 AM 52.9 °F - 52.9 °F 100% 29.41 in 10.0 mi SE 15.0 mph 23.0 mph N/A   Overcast
5:55 AM 53.2 °F - 53.2 °F 100% 29.41 in 7.0 mi SE 12.7 mph 20.7 mph N/A Rain Heavy Rain
6:00 AM 53.2 °F - 53.2 °F 100% 29.41 in 5.0 mi SE 12.7 mph 20.7 mph N/A Rain Light Rain
6:18 AM 53.1 °F - 53.1 °F 100% 29.40 in 7.0 mi ESE 8.1 mph - 0.03 in Rain Rain
6:36 AM 53.2 °F - 53.2 °F 100% 29.40 in 10.0 mi SE 6.9 mph - 0.04 in Rain Rain
6:55 AM 53.6 °F - 53.6 °F 100% 29.39 in 4.0 mi ESE 6.9 mph - 0.12 in Rain Heavy Rain
6:56 AM 53.6 °F - 53.6 °F 100% 29.39 in 4.0 mi ESE 6.9 mph - 0.13 in Rain Rain
7:15 AM 53.2 °F - 53.2 °F 100% 29.38 in 5.0 mi ESE 6.9 mph - 0.05 in Rain Rain
7:39 AM 53.6 °F - 53.6 °F 100% 29.37 in 10.0 mi SE 5.8 mph - 0.08 in Rain Light Rain
7:57 AM 53.6 °F - 53.6 °F 100% 29.38 in 10.0 mi South 3.5 mph - 0.08 in Rain Rain
8:15 AM 53.6 °F - 53.6 °F 100% 29.38 in 10.0 mi Calm Calm - N/A Rain Light Rain
8:16 AM 53.6 °F - 53.6 °F 100% 29.38 in 10.0 mi Calm Calm - N/A Rain Light Rain
8:36 AM 53.6 °F - 53.6 °F 100% 29.38 in 7.0 mi Calm Calm - N/A   Overcast
8:55 AM 53.8 °F - 53.8 °F 100% 29.40 in 7.0 mi WNW 5.8 mph - N/A   Overcast
9:18 AM 53.8 °F - 53.8 °F 100% 29.41 in 10.0 mi WNW 4.6 mph - N/A   Overcast
9:36 AM 54.7 °F - 54.7 °F 100% 29.42 in 10.0 mi West 5.8 mph - N/A   Overcast
9:55 AM 55.4 °F - 55.4 °F 100% 29.44 in 10.0 mi West 6.9 mph - N/A   Overcast
9:56 AM 55.4 °F - 55.4 °F 100% 29.45 in 10.0 mi West 8.1 mph - N/A   Overcast
10:15 AM 54.7 °F - 54.7 °F 100% 29.46 in 10.0 mi WNW 16.1 mph 20.7 mph N/A   Overcast
10:39 AM 52.9 °F - 52.7 °F 99% 29.49 in 10.0 mi WNW 15.0 mph 24.2 mph N/A   Overcast
10:57 AM 53.1 °F - 52.0 °F 96% 29.52 in 10.0 mi West 11.5 mph - N/A   Overcast
11:15 AM 55.2 °F - 52.7 °F 91% 29.52 in 10.0 mi NW 13.8 mph 18.4 mph N/A   Overcast
11:16 AM 55.2 °F - 52.7 °F 91% 29.52 in 10.0 mi NW 12.7 mph 18.4 mph N/A   Overcast
11:35 AM 54.5 °F - 51.4 °F 89% 29.55 in 10.0 mi NW 16.1 mph 33.4 mph N/A   Overcast
11:55 AM 54.1 °F - 50.9 °F 89% 29.58 in 10.0 mi WNW 15.0 mph 26.5 mph N/A   Overcast
12:18 PM 53.8 °F - 50.2 °F 88% 29.61 in 10.0 mi NW 16.1 mph 24.2 mph N/A   Overcast
12:35 PM 55.4 °F - 49.3 °F 80% 29.62 in 10.0 mi WNW 18.4 mph 27.6 mph N/A   Mostly Cloudy
12:55 PM 54.9 °F - 48.4 °F 79% 29.63 in 10.0 mi NW 19.6 mph 25.3 mph N/A   Mostly Cloudy
1:15 PM 54.9 °F - 47.8 °F 77% 29.65 in 10.0 mi WNW 13.8 mph 25.3 mph N/A   Overcast
1:39 PM 55.4 °F - 47.7 °F 75% 29.68 in 10.0 mi WNW 16.1 mph 25.3 mph N/A   Overcast
1:57 PM 54.9 °F - 47.7 °F 77% 29.70 in 10.0 mi WNW 13.8 mph 25.3 mph N/A   Overcast
2:15 PM 56.3 °F - 47.8 °F 73% 29.70 in 10.0 mi WNW 13.8 mph 19.6 mph N/A   Overcast
2:35 PM 55.8 °F - 47.3 °F 73% 29.73 in 10.0 mi WNW 17.3 mph 26.5 mph N/A   Overcast
2:55 PM 57.4 °F - 47.8 °F 70% 29.74 in 10.0 mi West 19.6 mph 25.3 mph N/A   Overcast
3:18 PM 56.7 °F - 47.1 °F 70% 29.75 in 10.0 mi West 18.4 mph 27.6 mph N/A   Overcast
3:36 PM 56.7 °F - 47.3 °F 71% 29.77 in 10.0 mi WNW 16.1 mph 21.9 mph N/A   Overcast
3:55 PM 56.7 °F - 47.3 °F 71% 29.78 in 10.0 mi West 17.3 mph 24.2 mph N/A   Overcast
4:15 PM 55.8 °F - 47.3 °F 73% 29.78 in 10.0 mi West 13.8 mph - N/A   Overcast
4:39 PM 56.7 °F - 47.1 °F 70% 29.80 in 10.0 mi West 13.8 mph 18.4 mph N/A   Mostly Cloudy
4:57 PM 56.7 °F - 47.5 °F 71% 29.81 in 10.0 mi West 13.8 mph - N/A   Overcast
5:15 PM 56.1 °F - 46.6 °F 70% 29.82 in 10.0 mi West 10.4 mph - N/A   Mostly Cloudy
5:16 PM 55.9 °F - 46.4 °F 70% 29.82 in 10.0 mi West 10.4 mph - N/A   Mostly Cloudy
5:35 PM 55.4 °F - 46.2 °F 71% 29.83 in 10.0 mi West 10.4 mph - N/A   Scattered Clouds
5:55 PM 53.8 °F - 45.5 °F 74% 29.82 in 10.0 mi West 6.9 mph - N/A   Clear
6:18 PM 50.4 °F - 44.6 °F 81% 29.84 in 10.0 mi SW 8.1 mph - N/A   Clear
6:36 PM 47.5 °F - 43.2 °F 85% 29.87 in 10.0 mi WSW 8.1 mph - N/A   Clear
6:55 PM 46.2 °F 42.7 °F 42.8 °F 88% 29.88 in 10.0 mi WSW 6.9 mph - N/A   Clear
7:15 PM 45.9 °F 44.6 °F 43.0 °F 90% 29.90 in 10.0 mi WSW 3.5 mph - N/A   Clear
7:39 PM 48.0 °F - 44.4 °F 87% 29.90 in 10.0 mi Calm Calm - N/A   Clear
7:57 PM 44.6 °F - 41.9 °F 90% 29.91 in 10.0 mi Calm Calm - N/A   Clear
8:16 PM 45.5 °F - 43.7 °F 93% 29.91 in 10.0 mi Calm Calm - N/A   Clear
8:35 PM 45.0 °F - 43.5 °F 95% 29.91 in 10.0 mi Calm Calm - N/A   Clear
8:55 PM 42.3 °F - 41.0 °F 95% 29.91 in 10.0 mi Calm Calm - N/A   Clear
9:00 PM 42.1 °F - 41.2 °F 97% 29.91 in 10.0 mi Calm Calm - N/A   Clear
9:18 PM 40.3 °F - 39.6 °F 97% 29.92 in 1.0 mi Calm Calm - N/A   Mist
9:36 PM 38.1 °F 34.6 °F 37.8 °F 99% 29.93 in 3.0 mi WSW 4.6 mph - N/A   Scattered Clouds
9:55 PM 40.6 °F 36.7 °F 40.6 °F 100% 29.93 in 10.0 mi WSW 5.8 mph - N/A   Scattered Clouds
10:15 PM 42.3 °F 40.5 °F 41.5 °F 97% 29.94 in 10.0 mi SW 3.5 mph - N/A   Clear
10:39 PM 41.5 °F 39.6 °F 39.6 °F 93% 29.95 in 10.0 mi SW 3.5 mph - N/A   Clear
10:57 PM 42.1 °F - 42.1 °F 100% 29.95 in 10.0 mi Calm Calm - N/A   Clear
11:15 PM 40.8 °F - 40.8 °F 100% 29.95 in 10.0 mi Calm Calm - N/A   Clear
11:35 PM 36.9 °F 32.2 °F 36.5 °F 99% 29.95 in 10.0 mi SW 5.8 mph - N/A   Clear
11:55 PM 38.8 °F 35.4 °F 38.8 °F 100% 29.95 in 10.0 mi SW 4.6 mph - N/A   Clear